Location: Staunton
(38.1490°N, 79.0720°W)
Time: 01:08:09
(UTC-05:00)

ISS - Pass Details

Date: 16 November 2018
Orbit: 401 x 409 km, 51.6° (Epoch: 21 November)

Event Time Altitude Azimuth Distance (km) Brightness Sun altitude
Exits shadow 05:49:22 16° 236° (SW) 1,131 -2.0 -13.7°
Maximum altitude 05:49:37 17° 230° (SW) 1,125 -1.9 -13.7°
Drops below altitude 10° 05:51:46 10° 189° (S) 1,452 -1.0 -13.2°
Sets 05:54:21 0° 167° (SSE) 2,308 0.4 -12.7°
